Location: Cabeza Gorda
(40.0667°N, 4.9667°W)
Time: 19:34:22
(UTC+00:00)

Cosmos 2278 Rocket - Pass Details

Date: 15 January 2026
Orbit: 839 x 846 km, 71.0° (Epoch: 10 February)

Event Time Altitude Azimuth Distance (km) Brightness Sun altitude
Rises 04:52:58 0° 170° (S) 3,375 5.5 -31.5°
Reaches altitude 10° 04:55:43 10° 159° (SSE) 2,446 4.8 -31.0°
Maximum altitude 05:00:23 28° 102° (ESE) 1,538 4.1 -30.1°
Drops below altitude 10° 05:05:05 10° 46° (NE) 2,463 5.1 -29.2°
Sets 05:07:50 0° 35° (NE) 3,403 5.7 -28.7°
